[[{"header":{"parameterUnit":"m.s-1","parameterCategory":1,"la1":30.2991,"la2":30.254,"lo1":-89.0895,"lo2":-89.0444,"dy":0.0017,"dx":0.0017,"nx":28,"ny":28,"refTime":"2026-01-11T09:00:00:Z","depth":0,"parameterNumber":2,"parameterNumberName":"U-component_of_WINDS"},"data":[0,0,0,0,0,0,0,0,0,0,0,0,0,0,0,0,0,0,0,0,0,0,0,0,0,0,0,0,0,0,0,0,0,0,0,0,0,0,0,0,0,0,0,0,0,0,0,0,0,0,0,0,0,0,0,0,0,0,-3.4457,-3.4458,0,-3.4582,-3.4584,-3.4585,-3.4503,-3.45,-3.4496,-3.4492,-3.4623,-3.4629,-3.4636,0,0,0,0,0,0,0,0,0,0,0,0,0,-3.4148,-3.4154,-3.4457,-3.4458,-3.446,-3.4582,-3.4584,-3.4585,-3.4504,-3.4499,-3.4495,-3.4491,-3.462,-3.4628,-3.4637,0,0,0,0,0,0,0,0,0,0,0,0,0,-3.4278,-3.4156,-3.4457,-3.4434,-3.4433,-3.4582,-3.4584,-3.4586,-3.4505,-3.4499,-3.4494,-3.4488,-3.4618,-3.4628,-3.4638,-3.4816,0,0,-3.467,-3.4675,0,0,0,0,0,0,0,0,-3.4271,-3.429,-3.4436,-3.4436,-3.4435,-3.4521,-3.4522,-3.4663,-3.4506,-3.4478,-3.4492,-3.4486,-3.4594,-3.4606,-3.4642,-3.4822,-3.4828,-3.4671,-3.4677,-3.4682,-3.4685,0,0,0,0,0,0,0,-3.4262,-3.4284,-3.4506,-3.4438,-3.4438,-3.4418,-3.443,-3.4549,-3.4566,-3.448,-3.4474,-3.449,-3.4592,-3.4632,-3.4644,-3.483,-3.4671,-3.468,-3.4686,-3.4691,-3.5161,-3.5167,0,0,0,0,0,0,-3.4255,-3.4277,-3.4502,-3.451,-3.4337,-3.4428,-3.4442,-3.4499,-3.4565,-3.4569,-3.4495,-3.4486,-3.4617,-3.4632,-3.4648,-3.4861,-3.4682,-3.4692,-3.4698,-3.5155,-3.5163,-3.5169,0,0,0,0,0,0,-3.4248,-3.4276,-3.4497,-3.4392,-3.4419,-3.4439,-3.4505,-3.4505,-3.4544,-3.4576,-3.4579,-3.4532,-3.4613,-3.4634,-3.4775,-3.4864,-3.4696,-3.4706,-3.5148,-3.5158,-3.5166,-3.5287,0,0,0,0,0,0,-3.424,-3.4274,-3.4342,-3.4394,-3.4425,-3.4622,-3.451,-3.4511,-3.4562,-3.4552,-3.4611,-3.4616,-3.461,-3.4759,-3.4785,-3.4876,-3.4714,-3.514,-3.5152,-3.5163,-3.5275,-3.53,-3.532,0,0,0,0,0,-3.4229,-3.4372,-3.4346,-3.4373,-3.451,-3.4627,-3.4645,-3.4635,-3.457,-3.4638,-3.4658,-3.4614,-3.485,-3.4775,-3.4803,-3.4898,-3.5134,-3.5149,-3.5162,-3.5265,-3.5295,-3.532,0,0,0,0,0,0,-3.433,-3.4378,-3.435,-3.4514,-3.4567,-3.4613,-3.4699,-3.4666,-3.474,-3.4727,-3.4711,-3.4726,-3.4873,-3.4899,-3.4814,-3.5073,-3.4982,-3.5002,-3.5051,-3.5079,-3.5101,-3.5092,-3.4723,0,0,0,0,0,-3.4371,-3.4462,-3.4499,-3.464,-3.4668,-3.4679,-3.473,-3.4717,-3.4772,-3.4795,-3.4825,-3.488,-3.4966,-3.5024,-3.5105,-3.5278,-3.529,-3.5357,-3.538,-3.5398,-3.5416,-3.5509,-3.5539,-3.5215,-3.5215,-3.5215,0,0,-3.4458,-3.4495,-3.4554,-3.4661,-3.4701,-3.4796,-3.4699,-3.4803,-3.4873,-3.4811,-3.4945,-3.4969,-3.503,-3.5188,-3.5259,-3.5214,-3.5508,-3.5416,-3.543,-3.5438,-3.5526,-3.5557,-3.5584,-3.5225,-3.5223,-3.5222,0,0,-3.4664,-3.4701,-3.4822,-3.4864,-3.4924,-3.4931,-3.496,-3.5011,-3.5024,-3.5159,-3.5114,-3.5196,-3.5346,-3.5391,-3.5433,-3.5654,-3.5616,-3.5681,-3.5798,-3.5889,-3.5914,-3.5937,-3.6016,-3.6044,-3.5698,-3.5699,-3.5699,0,-3.4764,-3.4904,-3.4889,-3.4996,-3.5045,-3.4991,-3.5113,-3.5154,-3.5239,-3.5274,-3.5222,-3.5408,-3.5445,-3.5612,-3.5665,-3.5702,-3.5734,-3.5675,-3.5912,-3.5934,-3.5955,-3.603,-3.606,-3.5706,-3.5705,-3.5705,-3.5704,0,-3.5024,-3.5122,-3.5212,-3.5294,-3.5353,-3.5467,-3.5469,-3.553,-3.5512,-3.5524,-3.5661,-3.5703,-3.5792,-3.583,-3.5814,-3.5995,-3.5965,-3.5913,-3.5822,-3.5994,-3.6064,-3.6092,-3.5717,-3.5714,-3.5712,-3.571,0,0,-3.5299,-3.537,-3.5403,-3.5439,-3.5502,-3.5577,-3.5689,-3.5774,-3.5827,-3.5887,-3.598,-3.6107,-3.6058,-3.6106,-3.6094,-3.6174,-3.6346,-3.6112,-3.6113,-3.6154,-3.6547,-3.6586,-3.662,-3.632,-3.6325,-3.633,-3.6542,0,-3.5508,-3.5703,-3.5691,-3.5874,-3.5964,-3.5913,-3.601,-3.6059,-3.6072,-3.6151,-3.6165,-3.6255,-3.6185,-3.6213,-3.629,-3.6309,-3.6425,-3.6293,-3.6407,-3.6411,-3.6394,-3.6656,-3.6699,-3.6897,-3.6569,-3.6574,-3.6577,0,-3.5779,-3.5847,-3.6039,-3.6086,-3.6123,-3.6211,-3.6288,-3.6363,-3.6417,-3.6421,-3.6474,-3.6449,-3.6561,-3.6466,-3.6621,-3.6532,-3.6577,-3.6593,-3.6601,-3.6612,-3.6505,-3.6675,-3.696,-3.699,-3.662,-3.6617,-3.6614,0,-3.5961,-3.61,-3.6232,-3.6265,-3.6324,-3.6386,-3.6414,-3.6462,-3.6514,-3.6581,-3.6614,-3.6694,-3.6738,-3.68,-3.6797,-3.6728,-3.6954,-3.6858,-3.696,-3.6961,-3.7011,-3.7008,-3.7308,-3.704,-3.704,-3.7039,-3.7038,0,-3.6196,-3.6315,-3.6314,-3.6396,-3.6527,-3.6513,-3.6644,-3.6664,-3.6707,-3.6792,-3.6753,-3.6833,-3.6823,-3.6904,-3.6902,-3.703,-3.705,-3.7057,-3.7055,-3.7061,-3.706,-3.7091,-3.7077,-3.7047,-3.7045,-3.7044,-3.7042,0,-3.6422,-3.6426,-3.6567,-3.661,-3.6624,-3.6719,-3.6756,-3.6833,-3.6842,-3.695,-3.6974,-3.6989,-3.7082,-3.7084,-3.7191,-3.7189,-3.7346,-3.7328,-3.7328,-3.7324,-3.7426,-3.7417,-3.7758,-3.7801,-3.7504,-3.7507,-3.7509,0,-3.6572,-3.6662,-3.6715,-3.6769,-3.68,-3.6887,-3.6939,-3.6927,-3.6983,-3.705,-3.712,-3.7208,-3.7279,-3.7429,-3.745,-3.7531,-3.7515,-3.7629,-3.7527,-3.753,-3.7517,-3.7512,-3.752,-3.7649,-3.7652,-3.7655,-3.7657,0,-3.6839,-3.6836,-3.6912,-3.699,-3.7053,-3.7113,-3.7169,-3.7215,-3.721,-3.7275,-3.7368,-3.7423,-3.7531,-3.762,-3.7698,-3.7726,-3.7692,-3.7688,-3.7716,-3.7724,-3.772,-3.7723,-3.7382,-3.7681,-3.7679,-3.7677,-3.7676,-3.7675,-3.7032,-3.7109,-3.7158,-3.7244,-3.7284,-3.7337,-3.7411,-3.7429,-3.7507,-3.7594,-3.7582,-3.7686,-3.7737,-3.7838,-3.7873,-3.7954,-3.7915,-3.7955,-3.7966,-3.7976,-3.7987,-3.7706,-3.7968,-3.7967,-3.7967,-3.7966,-3.7966,0,-3.7296,-3.7324,-3.7404,-3.7482,-3.755,-3.751,-3.7569,-3.7629,-3.7721,-3.777,-3.784,-3.7947,-3.8033,-3.8059,-3.8141,-3.8202,-3.8188,-3.8224,-3.8219,-3.8226,-3.8017,-3.7985,-3.8233,-3.8233,-3.8233,-3.8233,-3.8233,-3.8233,-3.7442,-3.757,-3.7573,-3.7721,-3.7748,-3.785,-3.7887,-3.7935,-3.7975,-3.8096,-3.8166,-3.8182,-3.8223,-3.8307,-3.8384,-3.8389,-3.8422,-3.8464,-3.8464,-3.8268,-3.8241,-3.8216,-3.8185,-3.8471,-3.8472,-3.8665,-3.8667,-3.8669]},{"header":{"parameterUnit":"m.s-1","parameterCategory":1,"la1":30.2991,"la2":30.254,"lo1":-89.0895,"lo2":-89.0444,"dy":0.0017,"dx":0.0017,"nx":28,"ny":28,"refTime":"2026-01-11T09:00:00:Z","depth":0,"parameterNumber":3,"parameterNumberName":"V-component_of_WINDS"},"data":[0,0,0,0,0,0,0,0,0,0,0,0,0,0,0,0,0,0,0,0,0,0,0,0,0,0,0,0,0,0,0,0,0,0,0,0,0,0,0,0,0,0,0,0,0,0,0,0,0,0,0,0,0,0,0,0,0,0,-4.9268,-4.9268,0,-4.9342,-4.9343,-4.9343,-4.9295,-4.9293,-4.9291,-4.9289,-4.9361,-4.9365,-4.9369,0,0,0,0,0,0,0,0,0,0,0,0,0,-4.9078,-4.9082,-4.9267,-4.9268,-4.9269,-4.9342,-4.9343,-4.9344,-4.9296,-4.9293,-4.929,-4.9288,-4.936,-4.9364,-4.9369,0,0,0,0,0,0,0,0,0,0,0,0,0,-4.9157,-4.9083,-4.9267,-4.9254,-4.9254,-4.9341,-4.9343,-4.9344,-4.9296,-4.9293,-4.929,-4.9287,-4.9358,-4.9364,-4.937,-4.9473,0,0,-4.9388,-4.939,0,0,0,0,0,0,0,0,-4.9153,-4.9164,-4.9255,-4.9255,-4.9255,-4.9306,-4.9302,-4.9387,-4.9297,-4.928,-4.9289,-4.9285,-4.9345,-4.9352,-4.9373,-4.9476,-4.9479,-4.9388,-4.9392,-4.9395,-4.9396,0,0,0,0,0,0,0,-4.9148,-4.9161,-4.9297,-4.9257,-4.9257,-4.9243,-4.925,-4.9318,-4.933,-4.9281,-4.9278,-4.9288,-4.9344,-4.9367,-4.9374,-4.948,-4.9388,-4.9394,-4.9397,-4.94,-4.9668,-4.9672,0,0,0,0,0,0,-4.9144,-4.9157,-4.9294,-4.9299,-4.9195,-4.9249,-4.9257,-4.9293,-4.9329,-4.9332,-4.9291,-4.9285,-4.9359,-4.9367,-4.9377,-4.9497,-4.9395,-4.94,-4.9404,-4.9665,-4.9669,-4.9673,0,0,0,0,0,0,-4.914,-4.9157,-4.9291,-4.9227,-4.9243,-4.9256,-4.9296,-4.9296,-4.9319,-4.9336,-4.9338,-4.9312,-4.9356,-4.9368,-4.9449,-4.9499,-4.9403,-4.9408,-4.966,-4.9666,-4.9671,-4.9741,0,0,0,0,0,0,-4.9135,-4.9156,-4.9196,-4.9228,-4.9247,-4.9364,-4.9299,-4.93,-4.933,-4.9324,-4.9357,-4.9359,-4.9355,-4.944,-4.9455,-4.9506,-4.9413,-4.9656,-4.9663,-4.9669,-4.9735,-4.9749,-4.976,0,0,0,0,0,-4.9128,-4.9213,-4.9199,-4.9216,-4.9298,-4.9367,-4.9378,-4.9372,-4.9334,-4.9374,-4.9385,-4.9358,-4.9492,-4.9449,-4.9465,-4.9518,-4.9653,-4.9661,-4.9669,-4.9729,-4.9746,-4.976,0,0,0,0,0,0,-4.9186,-4.9217,-4.9202,-4.93,-4.9332,-4.9359,-4.941,-4.9391,-4.9433,-4.9425,-4.9415,-4.9423,-4.9506,-4.952,-4.9472,-4.9618,-4.9566,-4.9578,-4.9606,-4.9622,-4.9635,-4.9629,-4.9418,0,0,0,0,0,-4.9211,-4.9266,-4.9289,-4.9373,-4.939,-4.9397,-4.9427,-4.942,-4.9452,-4.9465,-4.9481,-4.9512,-4.956,-4.9592,-4.9638,-4.9737,-4.9741,-4.9781,-4.9794,-4.9804,-4.9814,-4.9864,-4.9881,-4.9699,-4.9699,-4.9699,0,0,-4.9261,-4.9285,-4.932,-4.9386,-4.9409,-4.9464,-4.9409,-4.947,-4.951,-4.9473,-4.955,-4.9563,-4.9596,-4.9686,-4.9726,-4.97,-4.9865,-4.9815,-4.9823,-4.9827,-4.9874,-4.9891,-4.9907,-4.9705,-4.9704,-4.9703,0,0,-4.9381,-4.9406,-4.9478,-4.9502,-4.9539,-4.9543,-4.956,-4.959,-4.9598,-4.9675,-4.9648,-4.9694,-4.9779,-4.9802,-4.9826,-4.9952,-4.9928,-4.9967,-5.0034,-5.0083,-5.0098,-5.011,-5.0153,-5.0169,-4.9977,-4.9977,-4.9978,0,-4.9439,-4.9523,-4.9516,-4.9579,-4.9607,-4.9577,-4.9648,-4.9672,-4.9721,-4.974,-4.9711,-4.9815,-4.9835,-4.9928,-4.9959,-4.998,-4.9997,-4.9963,-5.0096,-5.0109,-5.0121,-5.0161,-5.0178,-4.9982,-4.9981,-4.9981,-4.998,0,-4.9591,-4.9649,-4.9702,-4.9751,-4.9785,-4.9852,-4.9853,-4.9888,-4.9877,-4.9884,-4.9961,-4.9984,-5.0033,-5.0054,-5.0045,-5.0145,-5.0128,-5.0098,-5.0045,-5.0142,-5.018,-5.0196,-4.9988,-4.9986,-4.9985,-4.9984,0,0,-4.975,-4.9793,-4.9813,-4.9833,-4.987,-4.9914,-4.9978,-5.0026,-5.0055,-5.009,-5.0141,-5.0213,-5.0184,-5.0211,-5.0203,-5.0246,-5.0342,-5.021,-5.0211,-5.0232,-5.0451,-5.0472,-5.049,-5.0326,-5.0329,-5.0332,-5.0447,0,-4.987,-4.9984,-4.9978,-5.0083,-5.0135,-5.0106,-5.0161,-5.0188,-5.0196,-5.0239,-5.0246,-5.0296,-5.0256,-5.0271,-5.0313,-5.0321,-5.0385,-5.0313,-5.0372,-5.0374,-5.0363,-5.0511,-5.0534,-5.0642,-5.0462,-5.0465,-5.0467,0,-5.0027,-5.0066,-5.0176,-5.0203,-5.0225,-5.0275,-5.0317,-5.036,-5.0389,-5.0391,-5.042,-5.0404,-5.0466,-5.0412,-5.0496,-5.0447,-5.047,-5.0478,-5.0482,-5.0486,-5.0425,-5.0516,-5.0676,-5.0692,-5.049,-5.0489,-5.0487,0,-5.0129,-5.021,-5.0285,-5.0304,-5.0338,-5.0373,-5.0389,-5.0415,-5.0444,-5.048,-5.0498,-5.0541,-5.0565,-5.0597,-5.0593,-5.0554,-5.0677,-5.0623,-5.0678,-5.0678,-5.0704,-5.0702,-5.0868,-5.0722,-5.0722,-5.0722,-5.0721,0,-5.0263,-5.0331,-5.0331,-5.0378,-5.0452,-5.0444,-5.0517,-5.0529,-5.0552,-5.0598,-5.0576,-5.0619,-5.0611,-5.0654,-5.0651,-5.0719,-5.073,-5.0731,-5.0729,-5.0733,-5.0732,-5.0747,-5.0738,-5.0726,-5.0725,-5.0724,-5.0723,0,-5.0389,-5.0393,-5.0473,-5.0498,-5.0506,-5.0559,-5.058,-5.0622,-5.0627,-5.0686,-5.0699,-5.0705,-5.0754,-5.0753,-5.0809,-5.0807,-5.089,-5.088,-5.088,-5.0877,-5.0931,-5.0925,-5.1111,-5.1133,-5.0975,-5.0976,-5.0978,0,-5.0474,-5.0525,-5.0556,-5.0586,-5.0603,-5.0652,-5.0681,-5.0674,-5.0705,-5.0741,-5.0778,-5.0825,-5.0863,-5.0942,-5.095,-5.0992,-5.0982,-5.1044,-5.0988,-5.0988,-5.098,-5.0976,-5.098,-5.1054,-5.1056,-5.1057,-5.1059,0,-5.0623,-5.0621,-5.0665,-5.0708,-5.0743,-5.0777,-5.0807,-5.0833,-5.0829,-5.0864,-5.0914,-5.0943,-5.1,-5.1045,-5.1085,-5.1099,-5.1077,-5.1076,-5.1091,-5.1094,-5.1091,-5.109,-5.0908,-5.1072,-5.107,-5.1069,-5.1069,-5.1068,-5.0729,-5.0772,-5.08,-5.0848,-5.0871,-5.0899,-5.094,-5.0949,-5.0992,-5.1037,-5.1031,-5.1086,-5.1111,-5.1162,-5.1179,-5.1221,-5.1199,-5.122,-5.1225,-5.123,-5.1235,-5.1085,-5.1228,-5.1228,-5.1227,-5.1227,-5.1227,0,-5.0875,-5.0891,-5.0935,-5.0979,-5.1016,-5.0994,-5.1026,-5.1058,-5.1107,-5.1133,-5.117,-5.1226,-5.127,-5.1282,-5.1323,-5.1354,-5.1345,-5.1365,-5.1362,-5.1364,-5.1254,-5.1236,-5.1371,-5.1371,-5.1371,-5.1371,-5.1371,-5.1371,-5.0955,-5.1026,-5.1028,-5.1109,-5.1124,-5.1179,-5.1198,-5.1224,-5.1244,-5.1308,-5.1345,-5.1352,-5.1372,-5.1414,-5.1452,-5.1454,-5.147,-5.1493,-5.1491,-5.1387,-5.1373,-5.1359,-5.1342,-5.1497,-5.1497,-5.1598,-5.1599,-5.16]}]]